Content
SEND FEEDBACK

Daily
Averages
Monthly
Summary
United States of America

CLARK, PENNSYLVANIA


Home > North America > United States > Pennsylvania
Elevation: 1035 feet     Latitude: 41 24N     Longitude: 080 23W

WEATHER
 
SELECT A DAY
Number of Records: 205,261;   Date Range: 1/1/95 - 9/3/14
 
SHARE

PRINT THIS DATA

[ ← Previous Day ]
WEATHER ALMANAC - JANUARY 23, 2013
[ Next Day → ]
[ °C ]   °F
Weather ElementAverageHighLow
Temperature9.3 °F14 °F (2:51 pm)3 °F (4:51 am)
Dewpoint1.6 °F7 °F (9:51 pm)-5.1 °F (2:51 am)
Humidity71.4 %85 % (6:07 pm)56 % (1:51 pm)
Barometer30.20 in30.30 in (9:51 am)30.07 in (8:51 pm)
Wind Speed8.3 mph15 mph (10:51 am)
Wind Gust18.4 mph (12:51 pm)
Weather ElementAverage
Visibility7.1 mi
Wind DirectionSSW (215.9 °)

Weather ElementTotal
Precipitation0.04 in
Heating Degree Days56.5 (Base 65)
Averaged from 27 records on January 23, 2013
WEATHER CONDITIONS BREAKOUT
WIND DIRECTION BREAKOUT
WEATHER BY HOUR - JANUARY 23, 2013
[ °C ]   °F
Local TimeTemperatureDewpointHumidityBarometerVisibilityWind DirectionWind SpeedGust SpeedPrecipitationEventsConditions
1:51 AM5.0 °F-4.0 °F66 %30.27 in10.0 miWSW (240°)13.8 mphPartly Cloudy
2:51 AM5.0 °F-5.1 °F63 %30.28 in10.0 miWSW (250°)12.7 mphPartly Cloudy
3:51 AM3.9 °F-5.1 °F66 %30.28 in10.0 miWSW (250°)11.5 mphPartly Cloudy
4:51 AM3.0 °F-4.0 °F73 %30.28 in10.0 miWSW (240°)9.2 mphPartly Cloudy
5:51 AM3.0 °F-5.1 °F69 %30.28 in10.0 miWSW (240°)10.4 mphPartly Cloudy
6:51 AM3.0 °F-4.0 °F73 %30.29 in10.0 miWSW (240°)8.1 mphScattered Clouds
7:51 AM3.0 °F-2.9 °F76 %30.29 in10.0 miSW (230°)6.9 mphScattered Clouds
8:51 AM6.1 °F-2.0 °F69 %30.29 in10.0 miWSW (240°)10.4 mphMostly Cloudy
9:51 AM8.1 °F-0.9 °F67 %30.30 in10.0 miWSW (250°)10.4 mphScattered Clouds
10:51 AM10.9 °F1.0 °F64 %30.29 in10.0 miWSW (250°)15.0 mphMostly Cloudy
11:51 AM12.9 °F1.0 °F59 %30.27 in10.0 miWSW (240°)15.0 mphOvercast
12:51 PM12.2 °F1.4 °F62 %30.17 in10.0 miWSW (250°)11.5 mph18.4 mphOvercast
1:51 PM12.9 °F0.0 °F56 %30.22 in9.0 miWest (270°)13.8 mph0.00 inSnowLight Snow
2:51 PM14.0 °F1.0 °F56 %30.20 in10.0 miWest (270°)6.9 mph0.00 inSnowLight Snow
3:51 PM12.9 °F3.9 °F67 %30.20 in3.0 miWSW (250°)8.1 mph0.00 inSnowLight Snow
3:58 PM12.2 °F5.0 °F73 %30.12 in1.5 miWSW (240°)8.1 mph0.00 inSnowLight Snow
4:33 PM12.2 °F5.0 °F73 %30.11 in2.0 miSW (220°)6.9 mph0.01 inSnowLight Snow
4:44 PM12.2 °F6.8 °F79 %30.11 in1.5 miSW (230°)6.9 mph0.01 inSnowLight Snow
4:51 PM12.9 °F6.1 °F74 %30.19 in1.5 miSW (220°)8.1 mph0.01 inSnowLight Snow
5:51 PM12.0 °F6.1 °F77 %30.17 in2.0 miSSW (200°)5.8 mph0.01 inSnowLight Snow
6:07 PM10.4 °F6.8 °F85 %30.08 in5.0 miSouth (180°)3.5 mph0.00 inSnowLight Snow
6:51 PM10.9 °F5.0 °F77 %30.17 in9.0 miCalm0.00 inSnowLight Snow
7:51 PM10.9 °F6.1 °F81 %30.16 in5.0 miSouth (180°)4.6 mph0.00 inSnowLight Snow
8:51 PM12.2 °F6.8 °F79 %30.07 in3.0 miSouth (180°)4.6 mphSnowLight Snow
9:51 PM12.0 °F7.0 °F80 %30.13 in6.0 miSouth (170°)4.6 mph0.00 inSnowLight Snow
10:51 PM10.0 °F5.0 °F80 %30.11 in6.0 miSSE (160°)3.5 mph0.00 inSnowLight Snow
11:51 PM6.1 °F1.9 °F83 %30.10 in7.0 miSE (140°)3.5 mph0.00 inSnowLight Snow
Hourly data recorded from KYNG, located miles away from Clark, Pennsylvania







STORIES FROM OUR PARTNERS